This is the latest recevied weather packets stored in our database for station/object PY3MO-13. If no packets are shown the sender has not sent any weather packets the latest 10 day(s).
| Time | Temp. | Humidity | Pressure | Rain* | Wind** | Luminosity | Snow |
|---|---|---|---|---|---|---|---|
| 1777639671 | 20° C | 62% | 1018 hPa | 0 mm | - | - | - |
| 1777639373 | 20.56° C | 62% | 1018 hPa | 0 mm | - | - | - |
| 1777639072 | 20.56° C | 62% | 1018 hPa | 0 mm | - | - | - |
| 1777638772 | 20° C | 62% | 1018.2 hPa | 0 mm | - | - | - |
| 1777638471 | 20.56° C | 63% | 1018.1 hPa | 0 mm | - | - | - |
| 1777638171 | 20° C | 65% | 1018.2 hPa | 0 mm | - | - | - |
| 1777637872 | 19.44° C | 65% | 1018.1 hPa | 0 mm | - | - | - |
| 1777637573 | 19.44° C | 63% | 1018.1 hPa | 0 mm | - | - | - |
| 1777637272 | 19.44° C | 64% | 1018.3 hPa | 0 mm | - | - | - |
| 1777636972 | 19.44° C | 66% | 1018.4 hPa | 0 mm | - | - | - |
| 1777636671 | 18.89° C | 66% | 1018.4 hPa | 0 mm | - | - | - |
| 1777636371 | 19.44° C | 66% | 1018.4 hPa | 0 mm | - | - | - |
| 1777636072 | 18.89° C | 67% | 1018.3 hPa | 0 mm | - | - | - |
| 1777635772 | 18.33° C | 69% | 1018.3 hPa | 0 mm | - | - | - |
| 1777635471 | 18.33° C | 71% | 1018.5 hPa | 0 mm | - | - | - |
| 1777635171 | 17.22° C | 75% | 1018.5 hPa | 0 mm | - | - | - |
| 1777634872 | 16.67° C | 77% | 1018.6 hPa | 0 mm | - | - | - |
| 1777634572 | 16.11° C | 77% | 1018.4 hPa | 0 mm | - | - | - |
| 1777634272 | 16.11° C | 78% | 1018.5 hPa | 0 mm | - | - | - |
| 1777633971 | 16.11° C | 78% | 1018.2 hPa | 0 mm | - | - | - |
| 1777633671 | 16.11° C | 79% | 1018.4 hPa | 0 mm | - | - | - |
| 1777633372 | 16.11° C | 79% | 1018.3 hPa | 0 mm | - | - | - |
| 1777633072 | 15.56° C | 79% | 1018.2 hPa | 0 mm | - | - | - |
| 1777632771 | 15.56° C | 79% | 1018.3 hPa | 0 mm | - | - | - |
| 1777632471 | 15.56° C | 79% | 1018.3 hPa | 0 mm | - | - | - |
* Rain latest hour (hover to see other rain measurements)
** Current wind speed in m/s (hover to see current wind gust speed)